Showing default

COSMOS 530, 6265

Orbit data source: Space-Track

COSMOS 530, 6265 is a payload satellite owned by OKB-10 (CIS) in LEO that was launched on Wed, 01 Nov 1972 UTC via a KOSMOS 11K65M launch vehicle from the Plesetsk Missile And Space Complex (PKMTR). Payload-class satellites include a variety of spacecraft equipped with specific instruments for various scientific and technological missions. These include communications satellites like Starlink; space stations such as the ISS; scientific satellites like the Hubble; Earth observation satellites from companies like Planet Labs, Umbra, and HawkEye 360; GPS; miniature CubeSats for education and research; and military/defense satellites.

Loading next visibility...
Identifier
6265, 1972-087C
Orbit
LEO
Country
Flag of CISCIS
Related business
Manufacturer
OKB-10
Mission
Spacecraft
Bus & Motor
STRELA-1 11F625, Unknown motor
Mass
60 kg wet, 60 kg dry
Launch date (UTC)
1972-11-01 (54 years ago)
Launch vehicle
KOSMOS 11K65M
Launch site
Plesetsk Missile And Space Complex (PKMTR)
Object type
Payload
Rocket body
Debris
Shape & HBR
Unknown
Radar Cross Section
Medium (>0.1 m² and <1 m²)

Expand to show TLE details & history
Last TLE update: 2 days ago

TLE from 2 days ago
0 COSMOS 530
1  6265U 72087C   26171.39564580 -.00000001  00000-0  79584-4 0  9999
2  6265  74.0362 295.2085 0086887  15.4473  40.4059 12.65677564477992
Epoch: 2026-06-20T09:29Z
TLE epoch observation values (Epoch: 2026-06-20T09:29:43.797Z)
Latitude
53.39959°
Longitude
-93.29917°
Altitude
1,356.72 km
Speed
7.209 km/s
True Right ascension
21h 10m 58s
True Declination
53° 14' 51"
Sunlit
Object was in daylight at epoch
Visualization orbit readout
Latitude
Unknown
Longitude
Unknown
Altitude
Unknown
Speed
Unknown
Apparent Right ascension
Unknown
Apparent Declination
Unknown
Sunlit
N/A
Visualization observer readout
Local Sidereal Time
23:07:51
Azimuth
Unknown
Elevation
Unknown
Doppler factor
Unknown
Orbital elements
Apogee altitude
1,464.973 km
Perigee altitude
1,329.854 km
Semi-major axis
7,775.551 km
Eccentricity
0.00869
Inclination
74.0362°
RAAN
295.2085°
Arg. of periapsis
15.4473°
True anomaly
41.05665°
Mean anomaly
40.4059°
Eccentric anomaly
40.73073°
Mean motion
3.16553 °/min
Orbital period
113.73 mins
BSTAR
0.000079584
Loading maneuver chart data...
Computing Atmospheric mass density...
Loading historical data...
Loading historical data...
Loading historical data...
Loading historical data...
Loading historical data...
Loading historical data...
Loading historical data...

Documentation

Showing up to 5 results
|